Regional Weather Roundup
Issued by NWS Charleston, WV

Home | Current Version | Previous Version | Text Only | Print | Product List | Glossary Off
Versions: 1 2 3 4 5 6 7 8 9 10 11 12 13 14 15 16 17 18 19 20 21 22 23 24 25 26 27 28 29 30 31 32 33 34 35 36 37 38 39 40 41 42 43 44 45 46 47 48 49 50

000
ASUS41 KRLX 031310
RWRRLX
West Virginia Regional Weather Roundup
National Weather Service Charleston WV
900 AM EDT FRI JUL 03 2015

Note: "fair" indicates few or no clouds below 12,000 feet with no
significant weather and/or obstructions to visibility.

WVZ003-031400-
Northern Panhandle of West Virginia

CITY           SKY/WX    TMP DP  RH WIND       PRES   REMARKS
WHEELING       MOSUNNY   65  58  78 E5        29.98R
$$

WVZ009-031400-
Northwest West Virginia

CITY           SKY/WX    TMP DP  RH WIND       PRES   REMARKS
PARKERSBURG    MOSUNNY   68  60  75 E7        29.97S
$$

WVZ006-031400-
Western West Virginia

CITY           SKY/WX    TMP DP  RH WIND       PRES   REMARKS
HUNTINGTON     CLOUDY    67  67 100 SE6       29.89F FOG
$$

WVZ015-031400-
West Central West Virginia

CITY           SKY/WX    TMP DP  RH WIND       PRES   REMARKS
CHARLESTON     LGT RAIN  67  64  90 E3        29.91S FOG
$$

WVZ022-031-031400-
North Central West Virginia

CITY           SKY/WX    TMP DP  RH WIND       PRES   REMARKS
CLARKSBURG     PTSUNNY   66  60  81 NE3       29.96S
MORGANTOWN     MOSUNNY   68  58  70 CALM      29.98S
$$

WVZ025-035-042-045-031400-
Southern West Virginia

CITY           SKY/WX    TMP DP  RH WIND       PRES   REMARKS
BECKLEY        LGT RAIN  65  62  90 SE7       30.00S FOG
LOGAN          PTSUNNY   68  68 100 CALM      29.90S
BLUEFIELD      LGT RAIN  67  62  84 S8        30.01S
LEWISBURG      CLOUDY    66  63  90 CALM      30.02R FOG
$$

WVZ047-031400-
Northern Mountains of West Virginia

CITY           SKY/WX    TMP DP  RH WIND       PRES   REMARKS
ELKINS         CLOUDY    62  58  86 CALM      30.01R FOG
$$

WVZ052-031400-
Eastern Panhandle of West Virginia

CITY           SKY/WX    TMP DP  RH WIND       PRES   REMARKS
MARTINSBURG    CLOUDY    67  62  84 N5        30.00S HAZE
PETERSBURG     PTSUNNY   65  60  83 CALM      30.01S
$$



USA.gov is the U.S. government's official web portal to all federal, state and local government web resources and services.